Location: ??????
(41.3164°N, 22.6615°E)
Time: 03:38:28
(UTC+00:00)

Oscar 19 - Pass Details

Date: 03 July 2022
Orbit: 773 x 790 km, 98.8° (Epoch: 11 August)

Event Time Altitude Azimuth Distance (km) Brightness Sun altitude
Rises 01:01:07 0° 28° (NNE) 3,258 15.6 -17.2°
Reaches altitude 10° 01:03:56 10° 43° (NE) 2,325 14.4 -16.9°
Maximum altitude 01:07:53 22° 94° (E) 1,627 12.7 -16.4°
Drops below altitude 10° 01:11:50 10° 145° (SE) 2,314 12.9 -16.0°
Enters shadow 01:14:08 - 158° (SSE) 3,065 13.4 -15.7°
